TimePDT,TemperatureF,Dew PointF,Humidity,Sea Level PressureIn,VisibilityMPH,Wind Direction,Wind SpeedMPH,Gust SpeedMPH,PrecipitationIn,Events,Conditions,WindDirDegrees,DateUTC
12:53 AM,72.0,41.0,33,29.99,10.0,NNW,6.9,18.4,N/A,,Clear,340,2013-05-09 07:53:00
1:53 AM,70.0,41.0,35,30.00,10.0,NW,9.2,-,N/A,,Clear,320,2013-05-09 08:53:00
2:53 AM,64.9,42.1,43,30.01,10.0,North,-9999.0,-,N/A,,Clear,0,2013-05-09 09:53:00
3:53 AM,64.0,41.0,43,30.01,10.0,WSW,3.5,-,N/A,,Clear,250,2013-05-09 10:53:00
4:53 AM,62.1,39.9,44,30.01,10.0,WSW,5.8,-,N/A,,Clear,250,2013-05-09 11:53:00
5:53 AM,57.9,41.0,53,30.03,10.0,West,5.8,-,N/A,,Clear,260,2013-05-09 12:53:00
6:53 AM,63.0,42.1,46,30.05,10.0,West,5.8,-,N/A,,Clear,260,2013-05-09 13:53:00
7:53 AM,69.1,44.1,40,30.06,10.0,Variable,5.8,-,N/A,,Clear,0,2013-05-09 14:53:00
8:53 AM,73.9,41.0,30,30.06,10.0,NNW,5.8,-,N/A,,Clear,340,2013-05-09 15:53:00
9:53 AM,78.8,39.2,24,30.08,10.0,Variable,4.6,-,N/A,,Clear,0,2013-05-09 16:53:00
10:53 AM,82.9,39.9,22,30.05,10.0,Variable,4.6,-,N/A,,Clear,0,2013-05-09 17:53:00
11:53 AM,87.1,37.9,18,30.04,10.0,Calm,Calm,-,N/A,,Clear,0,2013-05-09 18:53:00
12:53 PM,89.1,37.9,16,30.02,10.0,Calm,Calm,-,N/A,,Clear,0,2013-05-09 19:53:00
1:53 PM,91.0,39.0,16,30.01,10.0,East,4.6,-,N/A,,Clear,90,2013-05-09 20:53:00
2:53 PM,93.0,39.9,16,29.99,10.0,South,6.9,-,N/A,,Clear,180,2013-05-09 21:53:00
3:53 PM,93.0,39.0,15,29.97,10.0,South,3.5,-,N/A,,Clear,180,2013-05-09 22:53:00
4:53 PM,93.2,37.4,14,29.98,10.0,Calm,Calm,-,N/A,,Clear,0,2013-05-09 23:53:00
5:53 PM,93.0,39.0,15,29.95,10.0,SSW,4.6,-,N/A,,Clear,200,2013-05-10 00:53:00
6:53 PM,91.9,39.0,16,29.94,10.0,South,3.5,-,N/A,,Clear,180,2013-05-10 01:53:00
7:53 PM,89.1,34.0,14,29.96,10.0,North,10.4,-,N/A,,Clear,360,2013-05-10 02:53:00
8:53 PM,80.1,37.0,21,29.99,10.0,WSW,4.6,-,N/A,,Partly Cloudy,240,2013-05-10 03:53:00
9:53 PM,79.0,33.1,19,30.01,10.0,NNW,8.1,-,N/A,,Clear,330,2013-05-10 04:53:00
10:53 PM,75.2,37.4,25,30.05,10.0,NW,5.8,-,N/A,,Clear,320,2013-05-10 05:53:00
11:53 PM,69.1,39.9,35,30.04,10.0,WNW,4.6,-,N/A,,Clear,290,2013-05-10 06:53:00